Amarillo, TX

12:18 PM CDT on June 28, 2017 (GMT -0500)
Amarillo International

Weather History for KAMA - January, 2012

Change the Weather History Date:

Wednesday, January 25, 2012

  Actual Average Record
Temperature  
Mean Temperature 41 °F 37 °F  
Max Temperature 53 °F 51 °F 77 °F (1952)
Min Temperature 28 °F 24 °F 0 °F (1897)
Degree Days  
Heating Degree Days 24 28  
Month to date heating degree days 580 706  
Since 1 July heating degree days 2246 2423  
Cooling Degree Days 0 0  
Month to date cooling degree days 0 0  
Year to date cooling degree days 0 0  
Moisture  
Dew Point 24 °F    
Average Humidity 58    
Maximum Humidity 92    
Minimum Humidity 24    
Precipitation  
Precipitation 0.00 in 0.03 in 0.24 in (1962)
Month to date precipitation 0.05 0.55  
Year to date precipitation 0.05 0.55  
Snow  
Snow 0.00 in 0.10 in 2.40 in (1895)
Month to date snowfall 0.0 3.5  
Since 1 July snowfall 9.7 9.9  
Snow Depth 0.00 in    
Sea Level Pressure  
Sea Level Pressure 30.07 in    
Wind  
Wind Speed 15 mph (North)    
Max Wind Speed 31 mph    
Max Gust Speed 40 mph    
Visibility 10 miles    
Events      
T = Trace of Precipitation, MM = Missing Value Source: NWS Daily Summary

Daily Weather History Graph

Daily Weather History Graph

Search for Another Location

Airport or City:

Trip Planner

Search our weather history database for the weather conditions in past years. The results will help you decide how hot, cold, wet, or windy it might be!

Date:

Astronomy

Jan. 25, 2012 Rise Set
Actual Time 7:50 AM CST 6:07 PM CST
Civil Twilight 7:23 AM CST 6:34 PM CST
Nautical Twilight 6:53 AM CST 7:05 PM CST
Astronomical Twilight 6:23 AM CST 7:35 PM CST
Moon 8:58 AM CST (1/25) 8:54 PM CST (1/25)
Length of Visible Light 11h 10m
Length of Day
10h 16m
Waxing Crescent, 7% of the Moon is Illuminated
Jan 25
Waxing Crescent
Jan 30
First Quarter
Feb 7
Full
Feb 14
Last Quarter
Feb 21
New

Hourly Weather History & Observations

Time (CST) Temp. Windchill Dew Point Humidity Pressure Visibility Wind Dir Wind Speed Gust Speed Precip Events Conditions
12:53 AM 37.0 °F 26.2 °F 28.9 °F 73% 30.11 in 10.0 mi North 21.9 mph 27.6 mph N/A   Overcast
1:19 AM 35.6 °F 24.8 °F 28.4 °F 75% 30.15 in 10.0 mi North 19.6 mph 29.9 mph N/A   Overcast
1:53 AM 35.1 °F 21.8 °F 30.0 °F 82% 30.03 in 10.0 mi North 29.9 mph 36.8 mph N/A   Overcast
2:53 AM 33.1 °F 20.3 °F 28.9 °F 85% 30.09 in 10.0 mi North 24.2 mph 34.5 mph N/A   Scattered Clouds
3:53 AM 32.0 °F 19.8 °F 28.0 °F 85% 30.11 in 10.0 mi North 20.7 mph - N/A   Clear
4:53 AM 30.9 °F 18.4 °F 27.0 °F 85% 30.10 in 10.0 mi North 20.7 mph 27.6 mph N/A   Clear
5:53 AM 28.9 °F 16.9 °F 26.1 °F 89% 30.09 in 10.0 mi NNW 17.3 mph - N/A   Clear
6:53 AM 28.9 °F 17.7 °F 25.0 °F 85% 30.11 in 10.0 mi NNW 15.0 mph - N/A   Clear
7:53 AM 28.0 °F 16.1 °F 25.0 °F 88% 30.15 in 10.0 mi North 16.1 mph - N/A   Clear
8:53 AM 30.0 °F 18.3 °F 26.1 °F 85% 30.17 in 10.0 mi North 17.3 mph - N/A   Clear
9:53 AM 33.1 °F 21.2 °F 28.0 °F 82% 30.17 in 10.0 mi North 20.7 mph - N/A   Clear
10:53 AM 37.0 °F 26.7 °F 28.9 °F 73% 30.17 in 10.0 mi North 19.6 mph - N/A   Clear
11:53 AM 41.0 °F 32.2 °F 28.0 °F 60% 30.14 in 10.0 mi North 18.4 mph - N/A   Clear
12:53 PM 44.6 °F 37.8 °F 26.6 °F 49% 30.10 in 10.0 mi North 15.0 mph - N/A   Clear
1:53 PM 48.0 °F - 23.0 °F 37% 30.06 in 10.0 mi North 13.8 mph - N/A   Clear
2:53 PM 50.0 °F - 19.9 °F 31% 30.03 in 10.0 mi NW 15.0 mph - N/A   Clear
3:53 PM 51.8 °F - 15.8 °F 24% 30.02 in 10.0 mi NNW 15.0 mph 21.9 mph N/A   Clear
4:53 PM 52.0 °F - 16.0 °F 24% 29.98 in 10.0 mi NNW 11.5 mph - N/A   Clear
5:53 PM 48.2 °F - 17.6 °F 30% 29.97 in 10.0 mi NNW 6.9 mph - N/A   Clear
6:53 PM 44.1 °F - 17.1 °F 34% 29.98 in 10.0 mi Calm Calm - N/A   Clear
7:53 PM 42.8 °F - 17.6 °F 36% 29.97 in 10.0 mi Calm Calm - N/A   Clear
8:53 PM 33.8 °F 27.7 °F 19.4 °F 56% 29.98 in 10.0 mi SE 6.9 mph - N/A   Clear
9:53 PM 30.9 °F 25.2 °F 19.9 °F 64% 30.01 in 10.0 mi South 5.8 mph - N/A   Clear
10:53 PM 35.6 °F 29.9 °F 19.4 °F 52% 30.00 in 10.0 mi SSW 6.9 mph - N/A   Clear
11:53 PM 33.1 °F 25.5 °F 18.0 °F 54% 30.00 in 10.0 mi South 9.2 mph - N/A   Clear